Location: Potomac
(46.8816°N, 113.5795°W)
Time: 07:01:30
(UTC+00:00)

Oscar 19 - Pass Details

Date: 29 June 2022
Orbit: 773 x 790 km, 98.8° (Epoch: 12 August)

Event Time Altitude Azimuth Distance (km) Brightness Sun altitude
Rises 09:51:44 0° 29° (NNE) 3,262 15.9 -13.7°
Reaches altitude 10° 09:54:55 10° 50° (NE) 2,328 14.3 -13.4°
Maximum altitude 09:58:10 17° 90° (E) 1,889 13.1 -13.1°
Drops below altitude 10° 10:01:25 10° 130° (SE) 2,316 13.0 -12.8°
Sets 10:04:33 0° 150° (SSE) 3,238 13.6 -12.5°
